TimeEST,TemperatureF,Dew PointF,Humidity,Sea Level PressureIn,VisibilityMPH,Wind Direction,Wind SpeedMPH,Gust SpeedMPH,PrecipitationIn,Events,Conditions,WindDirDegrees,DateUTC
12:15 AM,36.5,36.0,98,30.15,10.0,North,10.4,16.1,N/A,Rain,Light Rain,360,2013-01-18 05:15:00
12:35 AM,36.1,35.8,99,30.15,10.0,North,10.4,-,0.01,,Light Drizzle,360,2013-01-18 05:35:00
12:55 AM,35.8,35.6,99,30.18,10.0,NW,6.9,-,0.01,,Mostly Cloudy,320,2013-01-18 05:55:00
1:15 AM,35.6,35.1,98,30.18,10.0,NNW,8.1,-,N/A,,Scattered Clouds,330,2013-01-18 06:15:00
1:35 AM,35.6,35.4,99,30.21,10.0,NNW,10.4,-,N/A,,Mostly Cloudy,340,2013-01-18 06:35:00
1:55 AM,36.0,35.6,99,30.23,10.0,NNW,8.1,-,N/A,,Overcast,340,2013-01-18 06:55:00
2:15 AM,36.5,36.0,98,30.24,10.0,NNW,6.9,-,N/A,,Overcast,330,2013-01-18 07:15:00
2:35 AM,36.1,35.6,98,30.23,10.0,North,3.5,-,N/A,,Mostly Cloudy,350,2013-01-18 07:35:00
2:55 AM,36.0,35.6,99,30.25,10.0,Calm,Calm,-,N/A,,Scattered Clouds,0,2013-01-18 07:55:00
3:15 AM,35.4,35.1,99,30.26,10.0,Calm,Calm,-,N/A,,Clear,0,2013-01-18 08:15:00
3:35 AM,34.7,34.7,100,30.27,10.0,WNW,3.5,-,N/A,,Clear,290,2013-01-18 08:35:00
3:55 AM,34.7,34.7,100,30.28,10.0,WNW,4.6,-,N/A,,Clear,300,2013-01-18 08:55:00
4:15 AM,34.3,34.3,100,30.28,10.0,WNW,3.5,-,N/A,,Clear,300,2013-01-18 09:15:00
4:35 AM,34.3,34.3,100,30.28,10.0,NW,3.5,-,N/A,,Clear,310,2013-01-18 09:35:00
4:55 AM,33.8,33.8,100,30.28,7.0,Calm,Calm,-,N/A,,Clear,0,2013-01-18 09:55:00
5:15 AM,33.6,33.6,100,30.29,7.0,NW,3.5,-,N/A,,Clear,310,2013-01-18 10:15:00
5:35 AM,33.6,33.6,100,30.30,10.0,NW,4.6,-,N/A,,Clear,320,2013-01-18 10:35:00
5:55 AM,33.8,33.8,100,30.30,10.0,Calm,Calm,-,N/A,,Clear,0,2013-01-18 10:55:00
6:15 AM,33.8,33.4,99,30.31,10.0,NW,5.8,-,N/A,,Clear,320,2013-01-18 11:15:00
6:35 AM,33.4,33.1,99,30.33,10.0,NW,4.6,-,N/A,,Clear,310,2013-01-18 11:35:00
6:55 AM,33.3,32.5,97,30.35,10.0,NNW,4.6,-,N/A,,Clear,330,2013-01-18 11:55:00
7:15 AM,33.3,32.0,95,30.36,10.0,Calm,Calm,-,N/A,,Clear,0,2013-01-18 12:15:00
7:35 AM,32.9,31.8,96,30.37,10.0,NNW,3.5,-,N/A,,Clear,340,2013-01-18 12:35:00
7:55 AM,33.1,31.8,95,30.38,10.0,North,3.5,-,N/A,,Clear,350,2013-01-18 12:55:00
8:15 AM,34.0,32.0,92,30.39,10.0,NNW,4.6,-,N/A,,Clear,340,2013-01-18 13:15:00
8:35 AM,35.1,32.0,89,30.41,10.0,North,4.6,-,N/A,,Clear,350,2013-01-18 13:35:00
8:55 AM,35.8,32.0,86,30.43,10.0,NNW,5.8,-,N/A,,Clear,340,2013-01-18 13:55:00
9:15 AM,37.0,32.0,82,30.44,10.0,North,8.1,-,N/A,,Clear,350,2013-01-18 14:15:00
9:35 AM,38.5,31.5,76,30.46,10.0,North,11.5,-,N/A,,Clear,350,2013-01-18 14:35:00
9:55 AM,39.7,30.9,71,30.48,10.0,North,5.8,-,N/A,,Clear,360,2013-01-18 14:55:00
10:15 AM,41.7,30.7,65,30.49,10.0,North,6.9,-,N/A,,Clear,350,2013-01-18 15:15:00
10:35 AM,42.8,30.2,61,30.48,10.0,NNW,8.1,-,N/A,,Clear,340,2013-01-18 15:35:00
10:55 AM,43.3,29.8,59,30.48,10.0,North,9.2,-,N/A,,Clear,350,2013-01-18 15:55:00
11:15 AM,43.9,27.9,53,30.49,10.0,North,9.2,-,N/A,,Clear,360,2013-01-18 16:15:00
11:35 AM,44.8,26.2,48,30.48,10.0,North,12.7,17.3,N/A,,Clear,350,2013-01-18 16:35:00
11:55 AM,46.4,27.0,47,30.47,10.0,North,8.1,16.1,N/A,,Clear,360,2013-01-18 16:55:00
12:15 PM,46.6,25.3,43,30.47,10.0,North,9.2,-,N/A,,Clear,10,2013-01-18 17:15:00
12:35 PM,47.3,25.2,42,30.46,10.0,NNE,12.7,16.1,N/A,,Clear,20,2013-01-18 17:35:00
12:55 PM,47.7,23.4,38,30.46,10.0,NNE,12.7,-,N/A,,Clear,20,2013-01-18 17:55:00
1:15 PM,47.8,23.2,38,30.45,10.0,North,6.9,-,N/A,,Clear,360,2013-01-18 18:15:00
1:35 PM,48.4,20.7,33,30.46,10.0,North,11.5,19.6,N/A,,Clear,10,2013-01-18 18:35:00
1:55 PM,48.7,21.6,34,30.45,10.0,North,11.5,16.1,N/A,,Clear,360,2013-01-18 18:55:00
2:15 PM,49.3,19.9,31,30.45,10.0,NNW,11.5,16.1,N/A,,Clear,340,2013-01-18 19:15:00
2:35 PM,49.1,19.8,31,30.45,10.0,North,10.4,-,N/A,,Clear,360,2013-01-18 19:35:00
2:55 PM,49.5,21.2,33,30.45,10.0,NNE,9.2,-,N/A,,Clear,30,2013-01-18 19:55:00
3:15 PM,49.3,18.9,30,30.45,10.0,North,8.1,-,N/A,,Clear,10,2013-01-18 20:15:00
3:35 PM,49.3,20.1,32,30.46,10.0,NNE,5.8,-,N/A,,Clear,20,2013-01-18 20:35:00
3:55 PM,49.3,20.5,32,30.46,10.0,North,5.8,-,N/A,,Clear,360,2013-01-18 20:55:00
4:15 PM,48.9,20.3,32,30.46,10.0,NNW,8.1,-,N/A,,Clear,340,2013-01-18 21:15:00
4:35 PM,48.2,20.7,34,30.47,10.0,North,4.6,-,N/A,,Clear,10,2013-01-18 21:35:00
4:55 PM,47.5,20.1,34,30.48,10.0,NNE,5.8,-,N/A,,Clear,20,2013-01-18 21:55:00
5:15 PM,46.2,20.8,37,30.48,10.0,North,4.6,-,N/A,,Clear,10,2013-01-18 22:15:00
5:35 PM,45.0,21.7,40,30.49,10.0,NNE,3.5,-,N/A,,Clear,20,2013-01-18 22:35:00
5:55 PM,43.7,22.8,44,30.49,10.0,Calm,Calm,-,N/A,,Clear,0,2013-01-18 22:55:00
6:15 PM,42.8,23.5,47,30.49,10.0,NNE,3.5,-,N/A,,Clear,20,2013-01-18 23:15:00
6:35 PM,41.5,24.8,51,30.51,10.0,Calm,Calm,-,N/A,,Clear,0,2013-01-18 23:35:00
6:55 PM,40.5,24.8,54,30.51,10.0,Calm,Calm,-,N/A,,Clear,0,2013-01-18 23:55:00
7:15 PM,39.2,26.6,61,30.52,10.0,Calm,Calm,-,N/A,,Clear,0,2013-01-19 00:15:00
7:35 PM,38.7,26.2,61,30.52,10.0,Calm,Calm,-,N/A,,Clear,0,2013-01-19 00:35:00
7:55 PM,37.6,27.0,66,30.52,10.0,Calm,Calm,-,N/A,,Clear,0,2013-01-19 00:55:00
8:15 PM,36.7,26.8,67,30.52,10.0,NNE,3.5,-,N/A,,Clear,30,2013-01-19 01:15:00
8:35 PM,36.1,26.8,69,30.52,10.0,Calm,Calm,-,N/A,,Clear,0,2013-01-19 01:35:00
8:55 PM,35.6,27.1,71,30.52,10.0,NNE,3.5,-,N/A,,Clear,30,2013-01-19 01:55:00
9:15 PM,34.7,26.6,72,30.52,7.0,Calm,Calm,-,N/A,,Clear,0,2013-01-19 02:15:00
9:35 PM,34.3,26.6,73,30.52,10.0,Calm,Calm,-,N/A,,Clear,0,2013-01-19 02:35:00
9:55 PM,34.0,26.2,73,30.52,10.0,Calm,Calm,-,N/A,,Clear,0,2013-01-19 02:55:00
10:15 PM,34.2,25.3,70,30.52,10.0,NE,3.5,-,N/A,,Clear,50,2013-01-19 03:15:00
10:35 PM,33.8,25.3,71,30.51,10.0,NE,3.5,-,N/A,,Clear,50,2013-01-19 03:35:00
10:55 PM,33.4,25.2,72,30.51,10.0,NE,3.5,-,N/A,,Clear,50,2013-01-19 03:55:00
11:15 PM,33.8,24.8,70,30.51,10.0,NE,3.5,-,N/A,,Clear,40,2013-01-19 04:15:00
11:35 PM,33.6,24.8,70,30.50,10.0,NE,3.5,-,N/A,,Clear,50,2013-01-19 04:35:00
11:55 PM,33.3,24.8,71,30.50,10.0,Calm,Calm,-,N/A,,Clear,0,2013-01-19 04:55:00